Glendale Luke AFB, AZ

7:52 PM MST on November 22, 2017 (GMT -0700)
Luke Air Force Base

Weather History for KLUF - May, 2013

Change the Weather History Date:

Saturday, May 11, 2013

  Actual Average Record
Temperature  
Mean Temperature 81 °F -  
Max Temperature 94 °F 93 °F 111 °F (1934)
Min Temperature 68 °F 56 °F 42 °F (1922)
Cooling Degree Days 16    
Growing Degree Days 31 (Base 50)    
Moisture  
Dew Point 37 °F    
Average Humidity 21    
Maximum Humidity 36    
Minimum Humidity 10    
Precipitation  
Precipitation 0.00 in - - ()
Sea Level Pressure  
Sea Level Pressure 29.98 in    
Wind  
Wind Speed 5 mph (NE)    
Max Wind Speed 12 mph    
Max Gust Speed 23 mph    
Visibility 10 miles    
Events      
Averages and records for this station are not official NWS values.
T = Trace of Precipitation, MM = Missing Value Source: NWS Daily Summary

Daily Weather History Graph

Daily Weather History Graph

Search for Another Location

Airport or City:

Trip Planner

Search our weather history database for the weather conditions in past years. The results will help you decide how hot, cold, wet, or windy it might be!

Date:

Astronomy

May. 11, 2013 Rise Set
Actual Time 5:31 AM MST 7:20 PM MST
Civil Twilight 5:04 AM MST 7:47 PM MST
Nautical Twilight 4:31 AM MST 8:20 PM MST
Astronomical Twilight 3:57 AM MST 8:55 PM MST
Moon 6:44 AM MST (5/11) 9:02 PM MST (5/11)
Length of Visible Light 14h 42m
Length of Day
13h 48m
Waxing Crescent, 3% of the Moon is Illuminated
May 11
Waxing Crescent
May 17
First Quarter
May 24
Full
May 31
Last Quarter
Jun 8
New

Hourly Weather History & Observations

Time (MST) Temp. Dew Point Humidity Pressure Visibility Wind Dir Wind Speed Gust Speed Precip Events Conditions
12:58 AM 77.5 °F 40.8 °F 27% 29.96 in 10.0 mi NNE 3.5 mph - N/A   Partly Cloudy
1:58 AM 72.7 °F 39.9 °F 31% 29.97 in 10.0 mi West 2.3 mph - N/A   Clear
2:58 AM 69.8 °F 41.5 °F 36% 29.98 in 10.0 mi NNW 4.6 mph - N/A   Clear
3:58 AM 72.0 °F 37.9 °F 29% 29.97 in 10.0 mi North 3.5 mph - N/A   Clear
4:58 AM 68.7 °F 39.7 °F 35% 29.98 in 10.0 mi North 2.3 mph - N/A   Clear
5:58 AM 69.8 °F 39.4 °F 33% 30.00 in 10.0 mi NE 8.1 mph - N/A   Clear
6:58 AM 73.4 °F 41.5 °F 32% 30.01 in 10.0 mi NE 5.8 mph - N/A   Clear
7:58 AM 79.9 °F 40.1 °F 24% 30.03 in 10.0 mi NE 8.1 mph - N/A   Clear
8:58 AM 83.1 °F 38.7 °F 21% 30.03 in 10.0 mi NE 10.4 mph - N/A   Clear
9:58 AM 86.4 °F 39.2 °F 19% 30.02 in 10.0 mi ENE 8.1 mph - N/A   Clear
10:58 AM 89.4 °F 39.4 °F 17% 30.02 in 10.0 mi East 10.4 mph 19.6 mph N/A   Clear
11:58 AM 90.1 °F 38.8 °F 16% 30.01 in 10.0 mi ESE 11.5 mph 23.0 mph N/A   Clear
12:58 PM 91.0 °F 37.9 °F 15% 29.99 in 10.0 mi SSE 6.9 mph - N/A   Clear
1:58 PM 92.1 °F 37.0 °F 14% 29.99 in 10.0 mi ENE 6.9 mph 18.4 mph N/A   Clear
2:58 PM 93.6 °F 32.2 °F 11% 29.97 in 10.0 mi NNE 6.9 mph - N/A   Clear
3:58 PM 94.5 °F 30.6 °F 10% 29.94 in 10.0 mi East 2.3 mph - N/A   Clear
4:58 PM 94.3 °F 30.4 °F 10% 29.93 in 10.0 mi East 3.5 mph - N/A   Clear
5:58 PM 93.7 °F 29.8 °F 10% 29.92 in 10.0 mi Variable 1.2 mph - N/A   Clear
6:58 PM 92.3 °F 31.3 °F 11% 29.93 in 10.0 mi South 2.3 mph - N/A   Clear
7:58 PM 87.4 °F 36.9 °F 17% 29.94 in 10.0 mi WSW 3.5 mph - N/A   Clear
8:58 PM 84.4 °F 39.7 °F 21% 29.94 in 10.0 mi West 3.5 mph - N/A   Clear
9:58 PM 78.4 °F 38.1 °F 23% 29.98 in 10.0 mi NNW 6.9 mph - N/A   Clear
10:58 PM 75.4 °F 37.2 °F 25% 29.99 in 10.0 mi NNW 4.6 mph - N/A   Clear
11:58 PM 75.9 °F 36.5 °F 24% 30.00 in 10.0 mi North 4.6 mph - N/A   Partly Cloudy